Home   Weather   Cincinnati   Past weeks

Flag for USA Past Weather in Cincinnati, Ohio, USA — Yesterday and Last 2 Weeks

Now
72 °F

Passing clouds.


Feels Like: 77 °F
Forecast: 53 / 74 °F
Wind: 6 mph from Northwest

Location: Cincinnati Municipal Airport Lunken Field

Current Time: Jun 25, 2017 at 10:03:09 pm

Latest Report: Jun 25, 2017 at 8:53 pm


Visibility: 10 mi

Pressure: 30.10 "Hg

Humidity: 44%

Dew Point: 49 °F

Location of CincinnatiLocation

Past Weather in Cincinnati — Graph

°F

Cincinnati Temperature Yesterday

Maximum temperature yesterday: 79 °F (at 3:53 pm)
Minimum temperature yesterday: 60 °F (at 6:53 am)
Average temperature yesterday: 70 °F

High & Low Weather Summary for the Past Weeks

 TemperatureHumidityPressure
High90 °F (Jun 12, 3:53 pm)100% (Jun 11, 6:20 am)30.15 "Hg (Jun 11, 6:20 am)
Low54 °F (Jun 25, 5:53 am)37% (Jun 25, 6:53 pm)29.68 "Hg (Jun 18, 9:53 am)
Average74 °F79%29.93 "Hg
* Reported Jun 10 7:53 pm — Jun 25 7:53 pm, Cincinnati. Weather by CustomWeather, © 2017

Note: Actual official high and low records may vary slightly from our data, if they occured in-between our weather recording intervals... More about our weather records

Advertising

Cincinnati Weather History for the Previous 24 Hours

Scroll right to see more
 ConditionsComfort  
Time TempWeatherWind HumidityBarometerVisibility
7:53 pm
Sun, Jun 25
75 °FPassing clouds.8 mph40%30.09 "Hg10 mi
6:53 pm76 °FScattered clouds.13 mph37%30.08 "Hg10 mi
5:53 pm75 °FPassing clouds.10 mph42%30.08 "Hg10 mi
4:53 pm79 °FScattered clouds.20 mph38%30.09 "Hg10 mi
3:53 pm77 °FScattered clouds.18 mph40%30.10 "Hg10 mi
2:53 pm76 °FPartly sunny.17 mph40%30.11 "Hg10 mi
1:53 pm76 °FScattered clouds.14 mph43%30.12 "Hg10 mi
12:53 pm77 °FSunny.14 mph42%30.14 "Hg10 mi
11:53 am76 °FSunny.14 mph43%30.15 "Hg10 mi
10:53 am74 °FSunny.15 mph45%30.15 "Hg10 mi
9:53 am71 °FSunny.12 mph51%30.15 "Hg10 mi
8:53 am66 °FSunny.3 mph73%30.15 "Hg10 mi
7:53 am60 °FSunny.No wind90%30.15 "Hg10 mi
6:53 am54 °FSunny.No wind97%30.14 "Hg10 mi
5:53 am54 °FClear.No wind100%30.12 "Hg10 mi
4:53 am55 °FClear.No wind96%30.10 "Hg10 mi
3:53 am56 °FClear.No wind93%30.10 "Hg10 mi
2:53 am59 °FClear.No wind90%30.10 "Hg10 mi
1:53 am59 °FClear.No wind87%30.10 "Hg10 mi
12:53 am66 °FClear.5 mph61%30.10 "Hg10 mi
11:53 pm
Sat, Jun 24
69 °FClear.6 mph57%30.10 "Hg10 mi
10:53 pm72 °FClear.7 mph52%30.09 "Hg10 mi
Weather by CustomWeather, © 2017

See weather overviewHow to use our weather pages